Home   Weather   Achern   Past weeks

Flag for Germany Past Weather in Achern, Baden-Württemberg, Germany — Yesterday and Last 2 Weeks

Now
30 °F

Passing clouds.


Feels Like: 23 °F
Forecast: 20 / 27 °F
Wind: 8 mph from Northeast

Location: Karlsruhe - Baden Wurttemberg

Current Time: Jan 16, 2017 at 8:45:23 pm

Latest Report: Jan 16, 2017 at 7:50 pm


Visibility: N/A

Pressure: 30.33 "Hg

Humidity: 75%

Dew Point: 23 °F

Location of AchernLocation

Past Weather in Achern — Graph

°F

Achern Temperature Yesterday

Maximum temperature yesterday: 36 °F (at 12:50 pm)
Minimum temperature yesterday: 27 °F (at 11:50 pm)
Average temperature yesterday: 32 °F

High & Low Weather Summary for the Past Weeks

 TemperatureHumidityPressure
High46 °F (Jan 12, 11:20 pm)100% (Jan 1, 7:20 pm)30.72 "Hg (Jan 1, 7:20 pm)
Low9 °F (Jan 7, 1:50 am)60% (Jan 5, 2:50 pm)29.33 "Hg (Jan 12, 11:50 pm)
Average31 °F92%30.18 "Hg
* Reported Jan 1 7:20 pm — Jan 16 7:20 pm, Achern, Weather by CustomWeather, © 2017

Note: Actual official high and low records may vary slightly from our data, if they occured in-between our weather recording intervals... More about our weather records

Advertising

Achern Weather History for the Previous 24 Hours

Scroll right to see more
 ConditionsComfort  
Time TempWeatherWind HumidityBarometerVisibility
7:20 pm
Mon, Jan 16
30 °FIcy mix. Partly cloudy.9 mph80%30.33 "HgN/A
6:50 pm30 °FPassing clouds.8 mph80%30.30 "HgN/A
6:20 pm30 °FLight snow. Passing clouds.9 mph80%30.30 "HgN/A
5:50 pm30 °FLight mixture of precip. Passing clouds.9 mph80%30.30 "HgN/A
5:20 pm30 °FLight mixture of precip. Passing clouds.8 mph80%30.30 "HgN/A
4:50 pm30 °FScattered clouds.9 mph93%30.30 "Hg6 mi
4:20 pm32 °FScattered clouds.9 mph80%30.27 "HgN/A
3:50 pm32 °FScattered clouds.9 mph80%30.27 "HgN/A
3:20 pm32 °FPartly sunny.9 mph80%30.27 "HgN/A
2:50 pm32 °FBroken clouds.8 mph80%30.27 "HgN/A
2:20 pm32 °FLight snow. Partly sunny.9 mph80%30.24 "HgN/A
1:50 pm32 °FPartly sunny.7 mph87%30.24 "HgN/A
1:20 pm32 °FPartly sunny.9 mph87%30.27 "HgN/A
12:50 pm32 °FPartly sunny.9 mph87%30.27 "HgN/A
12:20 pm30 °FPartly sunny.8 mph93%30.27 "Hg6 mi
11:50 am30 °FBroken clouds.8 mph93%30.27 "HgN/A
11:20 am30 °FBroken clouds.8 mph93%30.27 "Hg6 mi
10:50 am30 °FPartly sunny.7 mph100%30.24 "Hg4 mi
10:20 am28 °FPartly sunny.5 mph100%30.24 "Hg4 mi
9:50 am28 °FScattered clouds.5 mph100%30.24 "Hg4 mi
9:20 am25 °FScattered clouds.6 mph100%30.24 "Hg5 mi
8:50 am27 °FScattered clouds.5 mph100%30.24 "Hg4 mi
8:20 am27 °FScattered clouds.5 mph100%30.24 "Hg4 mi
7:50 am27 °FIce fog.2 mph100%30.21 "Hg2 mi
7:20 am25 °FFog.1 mph100%30.21 "Hg4 mi
6:50 am25 °FFog.1 mph100%30.21 "Hg4 mi
6:20 am23 °FFog.3 mph100%30.21 "Hg4 mi
5:50 am27 °FPassing clouds.1 mph100%30.21 "Hg5 mi
5:20 am27 °FPartly cloudy.1 mph100%30.18 "Hg5 mi
4:50 am25 °FPassing clouds.1 mph100%30.18 "Hg5 mi
11:50 pm
Sun, Jan 15
27 °FLight snow. Passing clouds.5 mph100%30.18 "Hg4 mi
11:20 pm30 °FSnow. Ice fog.3 mph100%30.18 "Hg2 mi
10:50 pm32 °FSnow. Ice fog.5 mph93%30.18 "Hg2 mi
10:22 pm32 °FSnow. Ice fog.3 mph93%30.18 "Hg2 mi
9:50 pm30 °FSnow flurries. Partly cloudy.5 mph100%30.18 "Hg6 mi
9:20 pm30 °FPartly cloudy.5 mph100%30.18 "HgN/A
8:50 pm30 °FPartly cloudy.2 mph100%30.21 "HgN/A
8:20 pm30 °FPartly cloudy.2 mph100%30.21 "HgN/A
Weather by CustomWeather, © 2017

See weather overviewHow to use our weather pages